FENGYUN 1C DEB

Satellite information

Favourite Embed

Satellite Type and Status

DEBRISIN ORBIT

Key statistics

Satellite FENGYUN 1C DEB at a glance.

Uptime

9610

Days in orbit

Revolutions

≈ 14.2

Per day

Orbit

SSO

Sun Synchronous Orbit

Inclination

99.1

Latest

Satellite identification and parameters

Extended collection of information and parameters for FENGYUN 1C DEB.

Object identification

Identified? True

Debris? True

Object name: FENGYUN 1C DEB

International designator: 1999-025DLB

Object number (NORAD): 35123

Object ID (CCSDS): 35123

Country: PEOPLES REPUBLIC OF CHINA (PRC)

Current information (Y/N): Y

RCS size: SMALL

Orbital parameters

Period: 101.135 minutes

Inclination: 99.1255 deg

SMA: 7190.53 km

Apoapsis: 848.318 km

Periapsis: 776.471 km

RAAN: 55.4947 deg

Eccentricy: 0.00499595

Argument of periapsis: 31.6641 deg

Mean anomaly: 328.7525 deg

Mean motion: 14.23840826 rev/day

Mean motion (dot): 0.00000595 rev/day2

B* drag term: 0.00027697424 1/REarth

Two-line elements (TLE)

Creation date: Aug. 25, 2025, 9:12 p.m.

Reference frame: TEME

Reference center: EARTH

Epoch: Aug. 24, 2025, 11 p.m. UTC

TLE line 0: 0 FENGYUN 1C DEB

TLE line 1: 1 35123U 99025DLB 25236.95879271 .00000595 00000-0 27697-3 0 9998

TLE line 2: 2 35123 99.1255 55.4947 0049959 31.6641 328.7525 14.23840826595119

Live tracking on map

Real-time ground track for satellite FENGYUN 1C DEB.

In-orbit conjunctions

A list of the most updated potential collisions computed for object FENGYUN 1C DEB.

Target Orbit TCA Probability of collision Miss distance Type
CZ-6A DEB LEO 2025-07-23 08:01:21 0.0002222768 547.0 (m) DEBRIS
CZ-6A R/B LEO 2024-12-13 18:30:41 0.0005637452 346.0 (m) ROCKET BODY
ALEXIS LEO 2024-10-13 16:12:37 0.0005427026 240.0 (m) PAYLOAD
SL-14 DEB LEO 2024-07-14 21:27:11 0.0001155337 106.0 (m) DEBRIS

Associated space launch

Chinese polar orbiting meteorological satellite

FENGYUN 1C DEB was lifted into orbit during the mission ‘Long March 4B | Feng Yun 1C’, on board a Long March 4B space rocket.

The launch took place on May 10, 1999, 1:33 a.m. from Launch Complex 7.

For more information about the launch, click the button.

Launch to space Long March 4B | Feng Yun 1C
Long March 4B | Feng Yun 1C

Agency: N/A

Status: Launch Successful

Launch date: May 10, 1999, 1:33 a.m. UTC

Rocket: Long March 4B

Launch pad: Launch Complex 7

Location: Taiyuan Satellite Launch Center, People's Republic of China

...

Latest news about this satellite

There are no fresh news available about this satellite. Check back as we update our databases every day.


Newsletter sign-up

Weekly statistics, charts and insights to help you stay on top of the space industry.